Date,TemperatureHighF,TemperatureAvgF,TemperatureLowF,DewpointHighF,DewpointAvgF,DewpointLowF,HumidityHigh,HumidityAvg,HumidityLow,PressureMaxIn,PressureMinIn,WindSpeedMaxMPH,WindSpeedAvgMPH,GustSpeedMaxMPH,PrecipitationSumIn
2012-1-1,66.0,49.0,33.0,53.0,38.8,29.0,99,73,32,0.00,40.00,13,4,24,0.31
2012-1-2,51.0,40.2,31.0,29.0,15.3,7.0,52,36,26,0.00,40.00,13,7,19,0.00
2012-1-3,33.0,28.6,24.0,13.0,5.9,-99.9,52,40,28,0.00,40.00,17,9,28,0.00
2012-1-4,43.0,29.9,19.0,20.0,9.8,4.0,71,46,21,0.00,40.00,9,4,13,0.00
2012-1-5,54.0,40.6,31.0,28.0,20.0,10.0,73,43,27,0.00,40.00,9,3,13,0.00
2012-1-6,68.0,48.3,31.0,31.0,27.0,22.0,85,49,18,0.00,40.00,8,3,11,0.00
2012-1-7,69.0,50.1,34.0,42.0,35.6,30.0,87,61,32,0.00,40.00,11,3,17,0.00
2012-1-8,56.0,49.0,42.0,42.0,35.2,27.0,87,62,33,0.00,40.00,5,1,7,0.05
2012-1-9,46.0,41.5,39.0,42.0,39.1,36.0,96,91,75,0.00,40.00,5,1,6,0.39
2012-1-10,57.0,43.6,37.0,41.0,35.2,26.0,98,73,30,0.00,40.00,7,3,11,0.01
2012-1-11,52.0,44.8,36.0,51.0,42.2,34.0,97,91,74,0.00,40.00,4,2,9,0.93
2012-1-12,60.0,49.5,42.0,48.0,42.7,-99.9,97,83,59,0.00,40.00,10,-10,17,0.34
2012-1-13,54.0,39.7,31.0,45.0,19.7,13.0,73,45,33,0.00,40.00,15,8,28,0.01
2012-1-14,43.0,33.7,27.0,29.0,17.8,14.0,82,54,32,0.00,40.00,10,4,17,0.00
2012-1-15,40.0,33.6,26.0,32.0,23.6,17.0,93,69,41,0.00,40.00,9,3,15,0.00
2012-1-16,48.0,35.8,24.0,29.0,21.5,17.0,93,60,32,0.00,40.00,9,3,16,0.01
2012-1-17,64.0,53.5,45.0,52.0,42.2,30.0,80,64,54,0.00,40.00,16,8,25,0.02
2012-1-18,59.0,46.6,35.0,52.0,27.7,16.0,82,49,28,0.00,40.00,13,7,23,0.12
2012-1-19,47.0,37.0,26.0,27.0,17.3,-99.9,62,48,33,0.00,40.00,11,3,14,0.00
2012-1-20,53.0,41.8,31.0,40.0,30.3,-99.9,97,70,40,0.00,40.00,7,2,9,0.10
2012-1-21,44.0,40.9,34.0,44.0,39.7,29.0,99,95,81,0.00,40.00,9,3,14,1.11
2012-1-22,35.0,33.3,31.0,33.0,31.1,28.0,97,92,83,0.00,40.00,7,4,11,0.03
2012-1-23,49.0,38.6,34.0,48.0,38.8,33.0,100,98,97,0.00,40.00,4,2,7,0.02
2012-1-24,63.0,48.5,39.0,49.0,39.2,-99.9,98,79,37,0.00,40.00,8,-25,11,0.00
2012-1-25,59.0,43.6,32.0,41.0,34.8,-99.9,97,78,5,0.00,40.00,4,-6,7,0.00
2012-1-26,69.0,50.9,38.0,56.0,42.8,-99.9,97,80,55,0.00,40.00,8,-21,15,0.00
2012-1-27,67.0,59.2,48.0,60.0,42.0,-99.9,94,61,34,0.00,40.00,17,-31,26,0.23
2012-1-28,59.0,51.1,39.0,36.0,31.2,26.0,85,47,36,0.00,40.00,10,6,16,0.00
2012-1-29,51.0,41.1,30.0,26.0,12.3,-99.9,76,36,15,0.00,40.00,9,-17,13,0.00
2012-1-30,58.0,42.9,29.0,30.0,20.6,11.0,74,44,21,0.00,40.00,7,3,11,0.00
2012-1-31,68.0,52.0,37.0,30.0,25.7,23.0,64,38,19,0.00,40.00,12,-10,18,0.00
2012-2-1,69.0,58.2,48.0,53.0,37.4,29.0,92,49,28,0.00,40.00,11,5,17,0.44
2012-2-2,66.0,55.7,46.0,53.0,40.3,-99.9,97,65,25,0.00,40.00,13,-9,20,0.47
2012-2-3,56.0,42.8,32.0,35.0,28.8,-99.9,94,63,30,0.00,40.00,4,-13,6,0.01
2012-2-4,56.0,42.8,34.0,45.0,34.0,-99.9,97,78,44,0.00,40.00,8,-26,12,0.96
2012-2-5,41.0,37.9,31.0,38.0,35.6,31.0,99,92,81,0.00,40.00,7,3,11,0.58
2012-2-6,49.0,37.5,28.0,37.0,32.6,28.0,100,84,52,0.00,40.00,4,2,5,0.00
2012-2-7,57.0,41.4,33.0,35.0,30.7,-99.9,95,70,36,0.00,40.00,7,-5,10,0.00
2012-2-8,45.0,38.0,31.0,40.0,34.4,30.0,99,87,68,0.00,40.00,8,2,13,0.05
2012-2-9,50.0,40.0,31.0,29.0,26.0,22.0,89,59,34,0.00,40.00,10,3,14,0.05
2012-2-10,50.0,39.0,28.0,37.0,30.1,-99.9,96,75,52,0.00,40.00,6,2,9,0.00
2012-2-11,46.0,38.5,24.0,38.0,23.6,1.0,87,58,31,0.00,40.00,21,-6,34,0.00
2012-2-12,40.0,29.1,22.0,11.0,3.0,-99.9,48,34,22,0.00,40.00,17,8,24,0.00
2012-2-13,50.0,37.0,27.0,25.0,15.6,10.0,67,44,20,0.00,40.00,8,3,13,0.00
2012-2-14,52.0,43.6,40.0,37.0,22.5,16.0,74,43,35,0.00,40.00,11,4,23,0.01
2012-2-15,62.0,48.2,36.0,38.0,32.8,24.0,91,60,23,0.00,40.00,7,2,12,0.01
2012-2-16,52.0,45.3,40.0,45.0,39.5,34.0,98,81,53,0.00,40.00,4,-13,7,0.68
2012-2-17,61.0,49.1,39.0,46.0,38.2,26.0,99,72,29,0.00,40.00,10,3,12,0.03
2012-2-18,64.0,49.4,40.0,42.0,33.7,23.0,85,59,21,0.00,40.00,8,2,15,0.00
2012-2-19,51.0,39.8,32.0,42.0,33.2,27.0,99,79,47,0.00,40.00,13,6,19,1.15
2012-2-20,47.0,37.2,29.0,33.0,30.3,25.0,98,79,43,0.00,40.00,10,-10,15,0.44
2012-2-21,57.0,40.9,26.0,43.0,33.4,26.0,99,76,9,0.00,40.00,14,4,21,0.00
2012-2-22,67.0,55.6,44.0,48.0,39.5,22.0,88,60,18,0.00,40.00,12,5,18,0.00
2012-2-23,72.0,57.0,44.0,54.0,48.7,43.0,98,77,42,0.00,40.00,14,3,22,0.23
2012-2-24,80.0,66.5,48.0,60.0,51.1,20.0,83,59,28,0.00,40.00,18,9,29,0.26
2012-2-25,49.0,43.2,37.0,23.0,15.6,8.0,50,33,23,0.00,40.00,21,10,33,0.16
2012-2-26,53.0,39.6,27.0,24.0,18.5,13.0,77,45,19,0.00,40.00,9,2,13,0.00
2012-2-27,51.0,41.9,32.0,47.0,36.1,23.0,96,81,49,0.00,40.00,7,3,12,0.02
2012-2-28,64.0,48.7,36.0,47.0,36.3,27.0,99,69,26,0.00,40.00,3,1,7,0.01
2012-2-29,66.0,53.8,46.0,60.0,48.6,35.0,96,79,62,0.00,40.00,9,4,14,0.77
2012-3-1,78.0,64.4,55.0,60.0,37.8,-99.9,87,45,13,0.00,40.00,16,-3,25,0.00
2012-3-2,56.0,49.6,43.0,50.0,42.7,28.0,96,79,34,0.00,40.00,7,3,11,0.78
2012-3-3,59.0,52.4,48.0,43.0,39.4,33.0,80,62,39,0.00,40.00,7,2,9,0.52
2012-3-4,53.0,46.6,37.0,43.0,24.5,14.0,80,43,25,0.00,40.00,13,6,22,0.00
2012-3-5,50.0,38.7,33.0,34.0,21.6,-99.9,74,51,28,0.00,40.00,14,-3,22,0.02
2012-3-6,55.0,40.0,27.0,26.0,21.9,16.0,84,51,22,0.00,40.00,5,2,8,0.01
2012-3-7,68.0,51.1,34.0,48.0,37.1,26.0,87,58,34,0.00,40.00,13,4,21,0.00
2012-3-8,72.0,61.1,49.0,54.0,47.0,-99.9,93,64,33,0.00,40.00,16,-1,22,0.00
2012-3-9,63.0,54.8,44.0,57.0,40.4,21.0,95,62,5,0.00,40.00,12,5,17,0.43
2012-3-10,56.0,44.6,35.0,33.0,21.0,-99.9,75,43,20,0.00,40.00,9,3,13,0.06
2012-3-11,65.0,47.3,31.0,33.0,26.1,-99.9,86,51,18,0.00,40.00,4,-21,8,0.00
2012-3-12,71.0,55.6,40.0,48.0,41.3,27.0,87,60,43,0.00,40.00,10,-11,16,0.00
2012-3-13,79.0,64.2,55.0,56.0,52.5,47.0,95,65,34,0.00,40.00,12,4,15,0.25
2012-3-14,84.0,67.5,53.0,58.0,49.3,35.0,95,59,18,0.00,40.00,6,2,9,0.00
2012-3-15,83.0,65.3,52.0,56.0,51.5,45.0,93,65,28,0.00,40.00,10,2,14,0.00
2012-3-16,74.0,64.1,53.0,57.0,53.7,51.0,92,71,49,0.00,40.00,6,2,7,0.00
2012-3-17,78.0,65.3,54.0,57.0,55.4,53.0,96,73,44,0.00,40.00,6,2,9,0.00
2012-3-18,72.0,60.6,56.0,58.0,55.7,54.0,96,82,59,0.00,40.00,4,2,7,0.00
2012-3-19,79.0,64.1,54.0,64.0,56.6,53.0,97,80,44,0.00,40.00,5,1,7,0.04
2012-3-20,82.0,66.8,59.0,67.0,58.3,-99.9,97,76,41,0.00,40.00,12,2,17,1.60
2012-3-21,80.0,66.5,57.0,64.0,59.0,34.0,97,80,46,0.00,40.00,8,2,11,0.00
2012-3-22,81.0,68.9,58.0,62.0,54.8,-99.9,97,70,42,0.00,40.00,8,-6,12,0.00
2012-3-23,85.0,75.1,64.0,61.0,57.6,52.0,88,58,32,0.00,40.00,10,3,15,0.00
2012-3-24,72.0,66.6,64.0,62.0,61.0,58.0,94,83,63,0.00,40.00,10,4,18,0.12
2012-3-26,71.0,61.2,55.0,35.0,29.9,25.0,34,31,26,0.00,40.00,9,6,15,0.00
2012-3-27,61.0,49.1,39.0,35.0,21.8,12.0,61,36,19,0.00,40.00,7,3,12,0.00
2012-3-28,80.0,62.2,44.0,55.0,44.4,27.0,73,53,38,0.00,40.00,18,8,26,0.00
2012-3-29,80.0,69.5,58.0,56.0,42.5,26.0,78,44,14,0.00,40.00,14,6,20,0.00
2012-3-30,73.0,64.1,55.0,55.0,47.5,40.0,75,56,40,0.00,40.00,4,2,8,0.00
2012-3-31,76.0,64.2,58.0,61.0,57.9,52.0,91,74,46,0.00,40.00,10,4,15,0.14
2012-4-1,70.0,57.3,49.0,52.0,45.2,-99.9,87,68,39,0.00,40.00,9,3,14,0.00
2012-4-2,71.0,63.3,51.0,54.0,44.6,31.0,72,53,23,0.00,40.00,9,4,14,0.00
2012-4-3,79.0,60.1,42.0,54.0,42.7,36.0,96,59,26,0.00,40.00,11,3,15,0.00
2012-4-4,87.0,69.1,57.0,61.0,56.9,50.0,93,67,30,0.00,40.00,18,4,18,0.24
2012-4-5,67.0,57.8,51.0,61.0,41.6,30.0,91,56,31,0.00,40.00,9,4,12,0.00
2012-4-6,62.0,52.7,44.0,41.0,35.0,23.0,80,54,22,0.00,40.00,10,5,17,0.02
2012-4-7,68.0,51.9,40.0,40.0,28.3,14.0,90,49,13,0.00,40.00,6,3,9,0.00
2012-4-8,77.0,59.6,39.0,40.0,30.5,19.0,79,40,16,0.00,40.00,11,4,17,0.00
2012-4-9,73.0,62.7,45.0,40.0,28.2,22.0,67,30,15,0.00,40.00,12,6,24,0.00
2012-4-10,74.0,60.5,45.0,41.0,30.4,17.0,84,38,14,0.00,40.00,14,5,27,0.00
2012-4-11,57.0,48.0,44.0,32.0,24.0,19.0,63,37,23,0.00,40.00,13,6,21,0.00
2012-4-12,64.0,49.6,36.0,37.0,27.2,20.0,78,46,19,0.00,40.00,8,4,13,0.00
2012-4-13,68.0,54.4,41.0,42.0,34.4,24.0,95,54,19,0.00,40.00,5,2,7,0.00
2012-4-14,76.0,59.0,41.0,47.0,39.2,35.0,90,55,24,0.00,40.00,13,4,21,0.00
2012-4-15,81.0,67.6,58.0,58.0,53.3,-99.9,86,61,38,0.00,40.00,13,5,17,0.00
2012-4-16,86.0,73.9,62.0,59.0,55.5,51.0,83,56,32,0.00,40.00,14,6,24,0.00
2012-4-17,83.0,71.3,60.0,59.0,53.0,-99.9,91,56,33,0.00,40.00,7,-5,11,0.21
2012-4-18,63.0,57.5,54.0,54.0,49.8,45.0,95,76,65,0.00,40.00,9,4,13,0.35
2012-4-19,66.0,57.9,51.0,56.0,51.8,49.0,95,81,60,0.00,40.00,6,2,10,0.37
2012-4-20,74.0,63.8,57.0,58.0,55.5,53.0,94,76,53,0.00,40.00,6,1,8,0.00
2012-4-21,81.0,66.8,55.0,61.0,56.6,54.0,97,74,41,0.00,40.00,8,-11,13,0.52
2012-4-22,62.0,53.8,48.0,60.0,51.0,-99.9,96,94,89,0.00,40.00,11,6,17,2.43
2012-4-23,51.0,46.1,43.0,47.0,41.1,37.0,94,84,60,0.00,40.00,10,5,15,0.22
2012-4-24,64.0,49.9,39.0,39.0,29.0,17.0,85,50,17,0.00,40.00,12,6,22,0.00
2012-4-25,69.0,54.5,37.0,51.0,40.1,34.0,96,63,27,0.00,40.00,8,3,13,0.00
2012-4-26,71.0,62.3,55.0,62.0,57.8,50.0,97,86,65,0.00,40.00,9,4,12,1.11
2012-4-27,71.0,63.3,51.0,61.0,49.0,-99.9,95,65,29,0.00,40.00,7,-11,14,0.65
2012-4-28,61.0,52.8,50.0,49.0,42.2,-99.9,93,70,42,0.00,40.00,5,-5,9,0.00
2012-4-29,74.0,59.3,48.0,58.0,49.6,-99.9,93,73,47,0.00,40.00,5,2,222,0.00
2012-4-30,76.0,63.2,60.0,63.0,58.7,56.0,93,80,60,0.00,40.00,4,-13,8,0.09
2012-5-1,86.0,72.2,63.0,67.0,63.8,60.0,96,77,47,0.00,40.00,17,4,32,0.06
2012-5-2,90.0,75.3,64.0,71.0,66.2,63.0,97,77,43,0.00,40.00,7,-19,15,0.03
2012-5-3,87.0,74.8,65.0,71.0,67.2,63.0,95,78,50,0.00,40.00,5,-21,8,0.00
2012-5-4,87.0,74.4,64.0,70.0,65.7,60.0,96,77,42,0.00,40.00,7,2,11,0.00
2012-5-5,81.0,72.1,64.0,68.0,65.4,63.0,96,80,60,0.00,40.00,6,2,8,0.00
2012-5-6,75.0,67.8,64.0,65.0,61.8,-99.9,93,83,63,0.00,40.00,8,3,12,0.01
2012-5-7,77.0,64.5,57.0,62.0,54.5,-99.9,94,70,51,0.00,40.00,4,-13,7,0.00
2012-5-8,78.0,68.8,58.0,63.0,59.4,55.0,94,73,57,0.00,40.00,7,2,13,0.00
2012-5-9,76.0,66.9,60.0,66.0,62.2,58.0,96,86,67,0.00,40.00,5,1,11,0.81
2012-5-10,72.0,62.0,53.0,59.0,47.9,39.0,95,64,31,0.00,40.00,9,4,17,0.13
2012-5-11,75.0,59.5,48.0,48.0,40.4,29.0,93,51,21,0.00,40.00,6,2,11,0.00
2012-5-12,78.0,63.0,47.0,53.0,45.9,39.0,93,58,25,0.00,40.00,7,1,10,0.00
2012-5-13,76.0,66.1,58.0,62.0,55.0,-99.9,95,70,49,0.00,40.00,8,2,15,0.09
2012-5-14,72.0,65.8,61.0,65.0,62.3,59.0,96,89,71,0.00,40.00,4,1,7,1.41
2012-5-15,81.0,69.4,63.0,68.0,64.3,61.0,96,83,56,0.00,40.00,4,-14,6,0.00
2012-5-16,83.0,72.1,64.0,67.0,64.1,59.0,96,78,45,0.00,40.00,5,1,6,0.00
2012-5-17,80.0,68.4,64.0,67.0,63.6,61.0,97,79,58,0.00,40.00,9,2,13,0.00
2012-5-18,76.0,67.5,59.0,60.0,51.8,45.0,93,61,35,0.00,40.00,7,3,12,0.00
2012-5-19,80.0,67.6,55.0,54.0,48.9,41.0,81,54,31,0.00,40.00,8,4,14,0.00
2012-5-20,80.0,67.4,55.0,64.0,54.0,-99.9,94,67,38,0.00,40.00,11,4,16,0.01
2012-5-21,81.0,71.8,65.0,66.0,63.8,63.0,94,77,54,0.00,40.00,4,2,8,0.00
2012-5-22,85.0,73.0,63.0,67.0,63.0,59.0,94,73,41,0.00,40.00,5,1,13,0.00
2012-5-23,80.0,69.9,64.0,67.0,62.9,58.0,96,80,53,0.00,40.00,2,-7,9,0.62
2012-5-24,84.0,71.2,62.0,71.0,65.0,60.0,96,80,57,0.00,40.00,0,-30,1,0.55
2012-5-25,89.0,73.9,65.0,74.0,67.7,63.0,96,83,43,0.00,40.00,2,0,4,0.01
2012-5-26,88.0,76.7,68.0,69.0,66.9,64.0,96,74,47,0.00,40.00,4,1,6,0.00
2012-5-27,87.0,76.6,67.0,70.0,65.9,-99.9,96,74,49,0.00,40.00,0,0,3,0.00
2012-5-28,89.0,78.6,71.0,70.0,67.9,64.0,94,72,44,0.00,40.00,0,0,1,0.00
2012-5-29,88.0,77.8,70.0,70.0,67.8,63.0,94,73,46,0.00,40.00,0,0,1,0.01
2012-5-30,83.0,74.1,69.0,69.0,64.7,54.0,95,75,39,0.00,40.00,2,0,4,0.02
2012-5-31,90.0,75.5,63.0,67.0,60.6,54.0,92,65,31,0.00,40.00,0,0,0,0.01
2012-6-1,86.0,72.2,63.0,71.0,66.3,62.0,95,83,49,0.00,40.00,0,0,1,0.33
2012-6-2,76.0,66.4,57.0,62.0,51.1,-99.9,96,63,35,0.00,40.00,0,-7,0,0.06
2012-6-3,80.0,66.2,53.0,65.0,51.6,-99.9,88,64,36,0.00,40.00,0,0,0,0.00
2012-6-4,85.0,70.6,61.0,60.0,53.5,45.0,89,56,27,0.00,40.00,0,0,0,0.00
2012-6-5,73.0,66.0,60.0,60.0,55.1,52.0,86,69,50,0.00,40.00,0,0,0,0.00
2012-6-6,74.0,64.3,58.0,57.0,54.5,52.0,93,72,47,0.00,40.00,0,0,0,0.00
2012-6-7,81.0,67.3,55.0,59.0,54.9,48.0,97,69,33,0.00,40.00,0,0,0,0.00
2012-6-8,87.0,72.1,58.0,59.0,53.3,43.0,91,57,22,0.00,40.00,0,0,0,0.00
2012-6-9,88.0,74.8,60.0,62.0,55.1,48.0,84,55,26,0.00,40.00,0,0,0,0.00
2012-6-10,90.0,77.2,66.0,63.0,56.8,-99.9,80,55,29,0.00,40.00,0,0,0,0.00
2012-6-11,81.0,72.1,68.0,71.0,64.0,-99.9,95,79,66,0.00,40.00,0,0,0,0.00
2012-6-12,84.0,74.5,68.0,71.0,69.3,66.0,95,85,62,0.00,40.00,0,0,0,0.00
2012-6-13,84.0,74.6,67.0,67.0,60.8,47.0,96,66,33,0.00,40.00,0,0,0,0.00
2012-6-14,78.0,68.4,61.0,64.0,56.4,-99.9,86,68,54,0.00,40.00,0,0,0,0.00
2012-6-15,84.0,71.4,61.0,63.0,57.5,53.0,93,65,35,0.00,40.00,0,0,0,0.00
2012-6-16,83.0,70.5,57.0,57.0,53.7,49.0,94,60,32,0.00,40.00,0,0,0,0.00
2012-6-17,82.0,69.5,56.0,59.0,54.0,-99.9,96,63,35,0.00,40.00,0,0,0,0.00
2012-6-18,85.0,72.2,63.0,65.0,61.1,57.0,84,69,49,0.00,40.00,0,0,0,0.00
2012-6-19,90.0,75.9,68.0,73.0,67.7,64.0,92,75,45,0.00,40.00,0,0,0,0.00
2012-6-20,98.0,82.3,69.0,74.0,68.3,62.0,95,68,33,0.00,40.00,0,0,0,0.11
2012-6-21,96.0,83.1,71.0,73.0,69.4,61.0,95,68,31,0.00,40.00,0,0,0,0.00
2012-6-22,96.0,81.5,73.0,71.0,68.7,63.0,88,68,34,0.00,40.00,0,0,0,0.00
2012-6-23,94.0,79.7,71.0,69.0,64.8,56.0,92,65,30,0.00,40.00,0,0,0,0.00
2012-6-24,93.0,81.8,70.0,70.0,63.5,52.0,94,59,26,0.00,40.00,0,0,0,0.00
2012-6-25,95.0,81.2,71.0,69.0,65.4,54.0,91,63,26,0.00,40.00,0,0,0,0.00
2012-6-26,82.0,73.7,64.0,61.0,48.2,40.0,66,43,22,0.00,40.00,0,0,0,0.00
2012-6-27,89.0,73.5,58.0,56.0,50.1,40.0,91,51,18,0.00,40.00,0,0,0,0.00
2012-6-28,96.0,79.4,61.0,60.0,53.1,43.0,83,46,16,0.00,40.00,0,0,0,0.00
2012-6-29,105.0,90.0,72.0,70.0,62.8,57.0,70,43,25,0.00,40.00,0,0,0,0.00
2012-6-30,104.0,93.2,70.0,67.0,63.3,58.0,82,39,25,0.00,40.00,0,0,0,0.00
2012-7-1,102.0,83.8,75.0,76.0,65.0,53.0,84,52,26,0.00,40.00,0,0,0,0.89
2012-7-2,95.0,82.9,74.0,69.0,64.2,60.0,79,55,32,0.00,40.00,0,0,0,0.00
2012-7-3,99.0,83.8,72.0,70.0,64.5,58.0,91,57,27,0.00,40.00,0,0,0,0.00
2012-7-4,98.0,83.5,72.0,70.0,66.9,63.0,85,60,36,0.00,40.00,0,0,0,0.00
2012-7-5,102.0,87.1,74.0,72.0,67.0,62.0,85,55,28,0.00,40.00,0,0,0,0.00
2012-7-6,101.0,87.2,76.0,71.0,66.1,57.0,74,53,25,0.00,40.00,0,0,0,0.00
2012-7-7,103.0,89.6,73.0,73.0,67.1,59.0,88,52,25,0.00,40.00,0,0,0,0.00
2012-7-8,105.0,90.7,78.0,72.0,66.8,58.0,73,49,23,0.00,40.00,0,0,0,0.00
2012-7-9,95.0,82.6,73.0,74.0,71.3,69.0,96,71,44,0.00,40.00,0,0,0,0.36
2012-7-10,90.0,77.8,71.0,73.0,70.9,65.0,96,81,44,0.00,40.00,0,0,1,0.49
2012-7-11,83.0,74.3,70.0,71.0,67.6,63.0,89,80,63,0.00,40.00,0,0,0,0.03
2012-7-12,87.0,76.5,69.0,68.0,65.4,60.0,91,71,44,0.00,40.00,0,0,0,0.00
2012-7-13,87.0,78.5,70.0,71.0,68.1,65.0,90,71,55,0.00,40.00,0,0,0,0.01
2012-7-14,88.0,78.6,73.0,76.0,72.4,71.0,94,81,61,0.00,40.00,0,0,0,0.14
2012-7-15,92.0,81.4,74.0,78.0,71.9,69.0,92,75,46,0.00,40.00,0,0,0,0.13
2012-7-16,95.0,84.3,76.0,72.0,68.5,63.0,85,62,36,0.00,40.00,0,0,0,0.04
2012-7-17,99.0,87.5,71.0,72.0,67.0,60.0,89,54,28,0.00,40.00,0,0,0,0.00
2012-7-18,98.0,85.3,72.0,72.0,69.8,65.0,96,63,35,0.00,40.00,0,0,0,0.15
2012-7-19,96.0,80.8,72.0,72.0,69.5,62.0,96,71,7,0.00,40.00,0,-22,0,0.15
2012-7-20,92.0,79.8,73.0,74.0,70.7,68.0,95,76,45,0.00,40.00,0,0,0,0.15
2012-7-21,85.0,77.3,72.0,76.0,72.9,71.0,96,87,73,0.00,40.00,0,0,0,0.20
2012-7-22,85.0,75.8,70.0,74.0,70.8,69.0,96,85,62,0.00,40.00,0,0,0,0.22
2012-7-23,91.0,78.2,72.0,75.0,72.4,62.0,96,79,39,0.00,40.00,0,0,0,0.10
2012-7-24,94.0,82.9,74.0,74.0,69.9,63.0,92,67,42,0.00,40.00,0,0,0,0.00
2012-7-25,92.0,77.7,73.0,69.0,65.3,61.0,76,60,37,0.00,40.00,0,0,0,0.00
2012-7-26,99.0,85.8,76.0,74.0,69.0,64.0,83,57,34,0.00,40.00,0,0,0,0.00
2012-7-27,97.0,83.3,73.0,73.0,70.8,64.0,96,69,34,0.00,40.00,0,0,0,0.73
2012-7-28,95.0,80.3,71.0,75.0,69.1,61.0,97,73,37,0.00,40.00,0,0,0,0.06
2012-7-29,92.0,79.6,69.0,72.0,67.2,64.0,94,69,40,0.00,40.00,0,0,0,0.06
2012-7-30,91.0,77.4,72.0,73.0,68.9,60.0,92,68,42,0.00,40.00,0,0,0,0.00
2012-7-31,90.0,78.4,69.0,76.0,68.5,65.0,95,74,43,0.00,40.00,0,0,0,0.00
2012-8-1,93.0,80.1,70.0,70.0,67.6,65.0,90,68,42,0.00,40.00,0,0,0,0.00
2012-8-2,95.0,80.5,71.0,72.0,68.2,62.0,91,69,34,0.00,40.00,0,0,0,0.00
2012-8-3,94.0,81.6,70.0,71.0,68.0,66.0,90,65,40,0.00,40.00,0,0,0,0.00
2012-8-4,94.0,83.4,72.0,72.0,68.0,61.0,93,63,34,0.00,40.00,0,0,0,0.00
2012-8-5,91.0,82.6,75.0,72.0,69.8,67.0,89,67,46,0.00,40.00,0,0,0,0.00
2012-8-6,91.0,77.0,71.0,75.0,72.1,66.0,96,86,44,0.00,40.00,0,0,0,0.39
2012-8-7,87.0,78.3,72.0,75.0,71.9,70.0,97,82,59,0.00,40.00,0,0,0,0.00
2012-8-8,88.0,75.7,69.0,75.0,71.1,64.0,96,87,61,0.00,40.00,0,0,0,0.01
2012-8-9,91.0,78.0,66.0,73.0,64.4,-99.9,96,75,1,0.00,40.00,0,0,0,0.00
2012-8-10,83.0,76.3,71.0,72.0,70.1,68.0,96,82,61,0.00,40.00,0,0,0,0.15
2012-8-11,79.0,73.3,70.0,73.0,69.6,-99.9,96,90,80,0.00,40.00,0,0,0,0.65
2012-8-12,88.0,76.9,70.0,70.0,68.0,61.0,96,76,43,0.00,40.00,0,0,0,0.00
2012-8-13,91.0,77.1,64.0,70.0,63.8,56.0,95,68,32,0.00,40.00,0,0,0,0.00
2012-8-14,90.0,78.8,69.0,70.0,65.4,57.0,95,67,34,0.00,40.00,0,0,0,0.00
2012-8-15,88.0,78.3,71.0,70.0,68.0,65.0,90,72,48,0.00,40.00,0,0,0,0.00
2012-8-16,90.0,78.4,69.0,66.0,62.0,11.0,86,61,6,0.00,40.00,0,0,0,0.00
2012-8-17,90.0,80.0,67.0,69.0,64.7,62.0,89,62,40,0.00,40.00,0,0,0,0.00
2012-8-18,86.0,77.3,71.0,67.0,64.5,61.0,88,66,44,0.00,40.00,0,0,0,0.00
2012-8-19,74.0,70.2,67.0,68.0,66.0,62.0,96,87,70,0.00,40.00,0,0,0,0.85
2012-8-20,81.0,72.0,67.0,69.0,65.8,63.0,92,82,58,0.00,40.00,0,0,0,0.42
2012-8-21,86.0,74.7,67.0,69.0,65.9,62.0,95,76,45,0.00,40.00,0,0,0,0.01
2012-8-22,85.0,73.7,68.0,70.0,66.9,63.0,95,77,48,0.00,40.00,0,0,0,0.00
2012-8-23,88.0,77.2,69.0,68.0,64.9,58.0,92,68,39,0.00,40.00,0,0,0,0.00
2012-8-24,81.0,72.9,67.0,68.0,64.2,61.0,91,75,54,0.00,40.00,0,0,0,0.00
2012-8-25,72.0,65.5,62.0,65.0,63.6,61.0,96,91,69,0.00,40.00,0,-14,0,1.70
2012-8-26,81.0,71.4,65.0,69.0,65.7,64.0,95,83,59,0.00,40.00,0,-15,0,0.00
2012-8-27,89.0,77.3,68.0,74.0,69.6,67.0,95,79,52,0.00,40.00,0,0,0,0.00
2012-8-28,92.0,78.9,70.0,74.0,70.5,66.0,97,78,45,0.00,40.00,0,0,0,1.12
2012-8-29,88.0,76.7,70.0,71.0,67.7,61.0,97,77,42,0.00,40.00,0,0,0,1.17
2012-8-30,90.0,77.7,67.0,73.0,68.4,64.0,96,76,45,0.00,40.00,0,0,0,0.00
2012-8-31,92.0,78.3,72.0,76.0,66.1,-99.9,95,73,51,0.00,40.00,0,0,0,0.00
2012-9-1,90.0,80.2,73.0,75.0,72.0,67.0,94,78,51,0.00,40.00,0,0,0,0.02
2012-9-2,90.0,77.6,71.0,76.0,73.0,69.0,96,87,60,0.00,40.00,0,0,0,0.98
2012-9-3,85.0,75.5,71.0,76.0,72.2,69.0,97,90,70,0.00,40.00,0,0,0,1.26
2012-9-4,87.0,77.0,71.0,74.0,71.0,68.0,97,83,55,0.00,40.00,0,0,0,0.00
2012-9-5,87.0,78.3,72.0,73.0,71.0,69.0,91,79,57,0.00,40.00,0,0,0,0.00
2012-9-6,85.0,75.0,71.0,73.0,69.0,-99.9,96,84,1,0.00,40.00,0,0,0,0.48
2012-9-7,88.0,76.0,68.0,71.0,68.4,65.0,97,80,48,0.00,40.00,0,0,0,0.00
2012-9-8,87.0,73.9,66.0,72.0,69.1,65.0,96,86,62,0.00,40.00,0,0,0,0.53
2012-9-9,81.0,70.2,63.0,67.0,58.7,47.0,96,70,33,0.00,40.00,0,0,0,0.04
2012-9-10,80.0,66.5,57.0,58.0,53.2,44.0,92,64,28,0.00,40.00,0,0,0,0.00
2012-9-11,79.0,66.0,54.0,59.0,53.2,45.0,96,68,34,0.00,40.00,0,0,0,0.00
2012-9-12,80.0,66.1,55.0,60.0,55.6,51.0,97,73,38,0.00,40.00,0,0,0,0.00
2012-9-13,81.0,66.2,55.0,64.0,57.1,41.0,97,75,32,0.00,40.00,0,0,0,0.00
2012-9-14,83.0,70.2,64.0,67.0,64.1,62.0,96,81,50,0.00,40.00,0,0,0,0.00
2012-9-15,78.0,69.0,63.0,64.0,59.5,53.0,96,74,43,0.00,40.00,0,0,0,0.03
2012-9-16,65.0,62.2,59.0,60.0,58.1,54.0,95,87,73,0.00,40.00,0,-14,0,0.50
2012-9-17,77.0,68.2,61.0,69.0,63.9,59.0,95,87,72,0.00,40.00,0,0,0,0.11
2012-9-18,75.0,70.4,66.0,72.0,68.3,65.0,97,93,84,0.00,40.00,0,0,0,1.71
2012-9-19,74.0,65.8,58.0,66.0,58.5,54.0,97,79,50,0.00,40.00,0,0,0,1.62
2012-9-20,77.0,62.7,53.0,60.0,50.1,-99.9,96,71,44,0.00,40.00,0,-33,0,0.00
2012-9-21,83.0,67.7,56.0,64.0,59.3,55.0,97,77,48,0.00,40.00,0,0,0,0.00
2012-9-22,84.0,71.6,63.0,67.0,61.3,-99.9,95,74,46,0.00,40.00,0,0,0,0.33
2012-9-23,74.0,65.7,58.0,64.0,49.6,40.0,86,58,30,0.00,40.00,0,0,0,0.33
2012-9-24,73.0,60.0,51.0,52.0,43.9,-99.9,92,61,31,0.00,40.00,0,-16,0,0.00
2012-9-25,76.0,62.1,49.0,60.0,52.0,47.0,95,72,42,0.00,40.00,0,-21,0,0.00
2012-9-26,83.0,68.0,55.0,65.0,58.1,53.0,94,73,47,0.00,40.00,0,0,0,0.00
2012-9-27,85.0,70.3,58.0,66.0,60.4,54.0,96,75,35,0.00,40.00,0,0,0,0.00
2012-9-28,83.0,68.3,60.0,67.0,62.6,59.0,96,84,50,0.00,40.00,0,0,0,0.24
2012-9-29,68.0,61.1,57.0,66.0,58.6,54.0,96,92,76,0.00,40.00,0,0,0,0.56
2012-9-30,73.0,62.5,56.0,61.0,56.2,53.0,96,82,52,0.00,40.00,0,0,0,0.00
2012-10-1,66.0,61.8,60.0,61.0,59.0,57.0,96,91,83,0.00,40.00,0,0,0,0.05
2012-10-2,86.0,73.7,63.0,75.0,69.2,61.0,97,87,60,0.00,40.00,0,0,0,0.04
2012-10-3,84.0,75.7,72.0,73.0,71.4,68.0,95,84,60,0.00,40.00,0,0,0,0.01
2012-10-4,80.0,71.9,64.0,69.0,63.3,58.0,94,76,48,0.00,40.00,0,0,0,0.00
2012-10-5,81.0,67.1,56.0,62.0,57.4,52.0,95,75,37,0.00,40.00,0,0,0,0.00
2012-10-6,81.0,69.3,60.0,63.0,58.2,50.0,91,70,44,0.00,40.00,0,0,0,0.00
2012-10-7,65.0,52.9,49.0,57.0,50.4,48.0,97,91,61,0.00,40.00,0,0,39,0.93
2012-10-8,51.0,48.3,46.0,49.0,46.1,44.0,96,92,85,0.00,40.00,0,0,0,0.12
2012-10-9,60.0,52.5,46.0,53.0,48.6,45.0,95,87,73,0.00,40.00,0,0,0,0.03
2012-10-10,72.0,61.1,55.0,54.0,51.1,47.0,92,72,46,0.00,40.00,0,0,0,0.00
2012-10-11,66.0,55.3,45.0,49.0,42.9,37.0,93,65,38,0.00,40.00,0,0,0,0.00
2012-10-12,72.0,56.1,44.0,52.0,45.8,41.0,97,73,33,0.00,40.00,0,0,0,0.00
2012-10-13,67.0,53.4,44.0,48.0,40.7,34.0,95,65,34,0.00,40.00,0,-15,0,0.00
2012-10-14,75.0,59.2,45.0,59.0,50.8,44.0,97,77,45,0.00,40.00,0,0,0,0.00
2012-10-15,68.0,63.8,60.0,65.0,59.3,44.0,96,86,56,0.00,40.00,0,0,0,0.74
2012-10-16,69.0,57.5,47.0,50.0,43.7,38.0,95,63,37,0.00,40.00,0,0,0,0.00
2012-10-17,71.0,56.2,46.0,53.0,47.6,42.0,97,77,35,0.00,40.00,0,0,0,0.00
2012-10-18,74.0,60.7,47.0,64.0,55.6,46.0,97,84,59,0.00,40.00,0,0,0,0.10
2012-10-19,76.0,65.9,54.0,64.0,52.3,-99.9,97,71,32,0.00,40.00,0,0,0,0.27
2012-10-20,69.0,58.0,45.0,47.0,42.4,39.0,91,58,34,0.00,40.00,0,0,0,0.00
2012-10-21,67.0,53.9,43.0,48.0,41.4,35.0,94,66,34,0.00,40.00,0,0,0,0.00
2012-10-22,73.0,52.7,42.0,52.0,45.1,40.0,98,77,31,0.00,40.00,0,0,0,0.00
2012-10-23,81.0,60.1,47.0,57.0,50.4,45.0,96,75,31,0.00,40.00,0,0,0,0.00
2012-10-24,81.0,64.1,51.0,60.0,54.3,49.0,95,74,40,0.00,40.00,0,0,0,0.00
2012-10-25,81.0,64.5,52.0,60.0,55.7,51.0,96,77,39,0.00,40.00,0,0,0,0.00
2012-10-26,75.0,65.0,60.0,62.0,59.9,32.0,96,85,64,0.00,40.00,0,0,0,0.03
2012-10-27,66.0,62.5,61.0,62.0,57.2,51.0,93,80,68,0.00,40.00,0,0,0,0.05
2012-10-28,62.0,58.8,53.0,52.0,49.3,45.0,95,72,54,0.00,40.00,0,0,1,1.09
2012-10-29,53.0,45.7,41.0,52.0,43.5,38.0,95,92,82,0.00,40.00,0,0,0,2.95
2012-10-30,49.0,43.8,39.0,38.0,33.7,30.0,92,69,48,0.00,40.00,0,0,0,1.12
2012-10-31,53.0,47.0,40.0,35.0,33.3,31.0,75,60,44,0.00,40.00,0,0,0,0.11
2012-11-1,56.0,48.5,39.0,36.0,34.3,33.0,87,58,45,0.00,40.00,0,0,0,0.00
2012-11-2,58.0,45.8,36.0,36.0,32.2,27.0,93,62,30,0.00,40.00,0,0,0,0.01
2012-11-3,57.0,46.8,41.0,40.0,29.8,-99.9,89,57,33,0.00,40.00,0,0,0,0.01
2012-11-4,53.0,45.5,40.0,41.0,38.6,36.0,97,78,55,0.00,40.00,0,0,0,0.12
2012-11-5,54.0,43.8,38.0,42.0,33.0,29.0,97,67,38,0.00,40.00,0,0,0,0.00
2012-11-6,44.0,39.4,33.0,33.0,30.8,28.0,91,72,55,0.00,40.00,0,0,0,0.00
2012-11-7,51.0,41.4,35.0,37.0,33.1,30.0,98,73,47,0.00,40.00,0,0,0,0.06
2012-11-8,60.0,46.5,35.0,36.0,24.8,13.0,93,51,15,0.00,40.00,0,-7,0,0.00
2012-11-9,64.0,46.3,33.0,38.0,30.8,18.0,89,58,30,0.00,40.00,0,0,0,0.00
2012-11-10,74.0,49.3,35.0,41.0,35.3,-99.9,96,67,20,0.00,40.00,0,0,0,0.00
2012-11-11,74.0,54.2,39.0,49.0,42.5,37.0,95,69,28,0.00,40.00,0,0,0,0.00
2012-11-12,72.0,60.7,48.0,60.0,54.1,47.0,97,81,56,0.00,40.00,0,0,0,0.00
2012-11-13,65.0,48.9,38.0,60.0,46.9,34.0,98,93,82,0.00,40.00,0,0,1,0.81
2012-11-14,50.0,40.2,34.0,34.0,30.2,-99.9,86,70,50,0.00,40.00,0,-7,0,0.02
2012-11-15,48.0,41.2,36.0,42.0,35.5,30.0,91,75,65,0.00,40.00,0,0,0,0.13
2012-11-16,54.0,45.3,36.0,40.0,36.2,32.0,93,73,43,0.00,40.00,0,0,0,0.11
2012-11-17,57.0,43.9,34.0,36.0,31.1,24.0,97,65,30,0.00,40.00,0,0,0,0.00
2012-11-18,55.0,49.2,44.0,44.0,40.8,36.0,84,73,63,0.00,40.00,0,0,0,0.00
2012-11-19,57.0,50.7,45.0,44.0,41.9,40.0,87,72,61,0.00,40.00,0,0,0,0.00
2012-11-20,57.0,47.2,40.0,45.0,40.8,38.0,96,79,57,0.00,40.00,0,0,0,0.00
2012-11-21,58.0,43.3,35.0,42.0,36.8,33.0,99,79,7,0.00,40.00,0,0,0,0.00
2012-11-22,60.0,43.5,34.0,33.0,30.3,22.0,95,65,23,0.00,40.00,0,0,0,0.00
2012-11-23,67.0,47.5,29.0,40.0,32.1,27.0,96,62,28,0.00,40.00,0,0,0,0.00
2012-11-24,54.0,42.2,30.0,29.0,20.8,15.0,62,43,29,0.00,40.00,0,0,0,0.00
2012-11-25,51.0,36.2,25.0,25.0,19.2,13.0,84,53,24,0.00,40.00,0,0,0,0.00
2012-11-26,64.0,43.7,30.0,34.0,27.0,20.0,85,58,20,0.00,40.00,0,0,0,0.00
2012-11-27,49.0,43.8,37.0,43.0,36.7,30.0,95,77,57,0.00,40.00,0,0,0,0.64
2012-11-28,52.0,39.0,31.0,36.0,31.4,23.0,99,77,34,0.00,40.00,0,0,0,0.64
2012-11-29,53.0,36.3,26.0,30.0,26.6,23.0,94,72,32,0.00,40.00,0,0,0,0.00
2012-11-30,62.0,42.8,30.0,38.0,32.5,29.0,98,72,33,0.00,40.00,0,0,0,0.00
2012-12-1,60.0,42.2,32.0,40.0,35.2,32.0,98,79,39,0.00,40.00,0,0,0,0.00
2012-12-2,67.0,48.2,34.0,51.0,41.7,34.0,98,81,49,0.00,40.00,0,0,0,0.00
2012-12-3,73.0,58.3,50.0,54.0,51.8,49.0,95,77,50,0.00,40.00,0,0,0,0.00
2012-12-4,74.0,58.0,44.0,53.0,48.4,43.0,97,74,34,0.00,40.00,0,0,0,0.00
2012-12-5,61.0,55.1,41.0,56.0,50.4,40.0,98,84,72,0.00,40.00,0,0,0,0.15
2012-12-6,50.0,41.3,35.0,41.0,30.7,-99.9,98,71,44,0.00,40.00,0,0,0,0.01
2012-12-7,49.0,46.2,43.0,47.0,40.9,33.0,96,82,66,0.00,40.00,0,0,0,0.50
2012-12-8,60.0,51.4,47.0,53.0,49.5,46.0,97,94,78,0.00,40.00,0,0,0,0.26
2012-12-9,65.0,54.2,44.0,58.0,51.9,44.0,98,92,74,0.00,40.00,0,0,0,0.01
2012-12-10,70.0,64.0,53.0,62.0,58.0,52.0,97,82,61,0.00,40.00,0,0,0,0.00
2012-12-11,64.0,54.4,48.0,56.0,42.5,35.0,79,65,50,0.00,40.00,0,0,0,0.00
2012-12-12,48.0,44.2,42.0,39.0,31.4,29.0,71,61,51,0.00,40.00,0,0,0,0.00
2012-12-13,52.0,42.1,31.0,33.0,30.1,27.0,92,63,41,0.00,40.00,0,-7,0,0.01
2012-12-14,58.0,37.4,26.0,34.0,29.1,25.0,98,76,30,0.00,40.00,0,0,0,0.00
2012-12-15,56.0,42.1,32.0,40.0,33.8,30.0,97,75,42,0.00,40.00,0,0,0,0.00
2012-12-16,55.0,50.0,45.0,54.0,47.2,34.0,97,90,57,0.00,40.00,0,0,0,1.06
2012-12-17,59.0,54.8,53.0,55.0,53.8,52.0,97,93,84,0.00,40.00,0,0,0,0.55
2012-12-18,60.0,53.4,42.0,55.0,43.4,30.0,93,69,40,0.00,40.00,0,0,0,0.01
2012-12-19,63.0,45.3,33.0,40.0,34.2,29.0,92,66,33,0.00,40.00,0,0,0,0.00
2012-12-20,61.0,46.1,35.0,60.0,40.7,34.0,97,82,59,0.00,40.00,0,0,0,0.45
2012-12-21,61.0,43.8,37.0,59.0,27.2,18.0,95,53,38,0.00,40.00,0,0,2,0.81
2012-12-22,48.0,39.6,35.0,23.0,18.3,14.0,53,43,26,0.00,40.00,0,0,2,0.00
2012-12-23,57.0,41.8,27.0,28.0,18.8,12.0,82,44,17,0.00,40.00,0,0,1,0.00
2012-12-24,49.0,43.8,39.0,45.0,37.2,25.0,93,78,50,0.00,40.00,0,0,1,0.13
2012-12-25,55.0,46.6,44.0,45.0,42.8,39.0,95,87,68,0.00,40.00,0,0,0,0.00
2012-12-26,45.0,40.3,37.0,42.0,38.7,36.0,99,94,77,0.00,40.00,8,3,16,1.98
2012-12-27,47.0,40.3,33.0,37.0,28.8,23.0,94,65,46,0.00,40.00,13,7,22,0.00
2012-12-28,44.0,35.5,28.0,32.0,26.5,23.0,89,71,47,0.00,40.00,4,1,9,0.00
2012-12-29,49.0,41.0,36.0,41.0,33.8,26.0,97,77,50,0.00,40.00,16,4,27,0.31
2012-12-30,45.0,37.8,33.0,26.0,18.7,-99.9,63,48,30,0.00,40.00,16,5,27,0.04
2012-12-31,51.0,37.2,27.0,28.0,21.3,18.0,79,53,28,0.00,40.00,11,-14,18,0.00
2013-1-1,47.0,44.8,43.0,43.0,36.3,27.0,97,74,48,0.00,40.00,6,2,11,0.54